This demonstration page uses our WeatherBlox Daily Observations layout. Learn more.

38.89511, -77.03637

Hourly Observations for December 1, 2018

Temp ( °F °C ) Dew Point ( °F °C ) Humidity (%) Winds ( mph kmh ) Pressure ( in mb ) Visibility ( mi km ) Precip ( " mm )
12:52 am 00:52 Partly Cloudy 38 3.3 33 0.6 83 83 S 3 6 30.15 1021 8 12.874752 0 0
1:52 am 01:52 Mostly Cloudy 38 3.3 32 0 79 79 Calm 30.15 1021 8 12.874752 0 0
2:17 am 02:17 Mostly Cloudy 38 3.3 33 0.6 83 83 Calm 30.15 1021 8 12.874752 0 0
2:52 am 02:52 Cloudy 38 3.3 34 1.1 86 86 SW 3 6 30.15 1021 8 12.874752 0 0
3:22 am 03:22 Partly Cloudy 37 2.8 32 0 82 82 W 6 9 30.18 1022 10 16.09344 0 0
3:52 am 03:52 Partly Cloudy 38 3.3 33 0.6 83 83 Calm 30.15 1021 10 16.09344 0 0
4:52 am 04:52 Cloudy 38 3.3 33 0.6 83 83 N 3 6 30.18 1022 10 16.09344 0 0
5:52 am 05:52 Cloudy 39 3.9 34 1.1 82 82 Calm 30.18 1022 10 16.09344 0 0
6:52 am 06:52 Cloudy 40 4.4 35 1.7 83 83 Calm 30.18 1022 10 16.09344 0 0
7:52 am 07:52 Cloudy 41 5 36 2.2 82 82 Calm 30.21 1023 8 12.874752 0 0
8:52 am 08:52 Cloudy 42 5.6 36 2.2 79 79 NE 5 7 30.18 1022 9 14.484096 0 0
9:52 am 09:52 Cloudy 43 6.1 35 1.7 74 74 NE 7 11 30.18 1022 9 14.484096 0 0
10:52 am 10:52 Cloudy 43 6.1 34 1.1 71 71 Calm 30.21 1023 9 14.484096 0 0
11:19 am 11:19 Cloudy with Light Rain 43 6.1 35 1.7 74 74 N 5 7 30.21 1023 3 4.828032 0.001 0.001
11:27 am 11:27 Cloudy with Light Rain 43 6.1 36 2.2 76 76 N 3 6 30.21 1023 2.5 4.02336 0.001 0.001
11:47 am 11:47 Cloudy with Light Rain 41 5 36 2 81 81 Calm 30.18 1022 1.75 2.816352 0.02 0.508
11:52 am 11:52 Cloudy with Light Rain 41 5 37 2.8 86 86 Calm 30.18 1022 1.75 2.816352 0.02 0.508
12:12 pm 12:12 Cloudy with Light Rain 41 5 37 2.8 86 86 Calm 30.18 1022 2 3.218688 0.03 0.762
12:20 pm 12:20 Cloudy with Light Rain 41 5 37 2.8 86 86 Calm 30.18 1022 2 3.218688 0.04 1.016
12:29 pm 12:29 Cloudy with Rain 41 5 38 3.3 89 89 Calm 30.18 1022 1.75 2.816352 0.06 1.524
12:36 pm 12:36 Cloudy with Rain 41 5 37 2.8 86 86 NE 3 6 30.18 1022 2 3.218688 0.07 1.778
12:52 pm 12:52 Cloudy with Rain 41 5 38 3.3 89 89 NE 5 7 30.15 1021 2 3.218688 0.1 2.54
1:15 pm 13:15 Cloudy with Light Rain 41 5 38 3.3 89 89 ENE 3 6 30.15 1021 1.75 2.816352 0.03 0.762
1:24 pm 13:24 Cloudy with Light Rain 41 5 38 3.3 89 89 E 5 7 30.15 1021 3 4.828032 0.03 0.762
1:52 pm 13:52 Cloudy with Light Drizzle 42 5.6 38 3.3 85 85 NE 6 9 30.12 1020 4 6.437376 0.03 0.762
2:03 pm 14:03 Cloudy with Light Drizzle 42 5.6 38 3.3 85 85 NE 6 9 30.15 1021 4 6.437376 0.001 0.001
2:17 pm 14:17 Cloudy with Light Drizzle 42 5.6 38 3.3 85 85 NE 7 11 30.12 1020 2.5 4.02336 0.001 0.001
2:52 pm 14:52 Cloudy with Light Drizzle 42 5.6 38 3.3 85 85 ENE 7 11 30.12 1020 1.75 2.816352 0.001 0.001
3:00 pm 15:00 Cloudy with Light Drizzle 42 5.6 39 3.9 89 89 ENE 5 7 30.12 1020 1.5 2.414016 0.001 0.001
3:52 pm 15:52 Cloudy with Light Drizzle 42 5.6 39 3.9 89 89 ENE 3 6 30.09 1019 1 1.609344 0.01 0.254
4:00 pm 16:00 Cloudy with Light Drizzle 41 5 39 3.9 93 93 NE 5 7 30.12 1020 0.75 1.207008 0.001 0.001
4:08 pm 16:08 Cloudy with Light Drizzle 41 5 39 3.9 93 93 NNE 5 7 30.12 1020 0.75 1.207008 0.001 0.001
4:17 pm 16:17 Cloudy with Light Drizzle 41 5 38 3.3 89 89 NNE 5 7 30.12 1020 1 1.609344 0.001 0.001
4:20 pm 16:20 Cloudy with Light Drizzle 41 5 39 3.9 93 93 NE 3 6 30.12 1020 1 1.609344 0.001 0.001
4:52 pm 16:52 Cloudy with Light Drizzle 41 5 39 3.9 93 93 ENE 6 9 30.09 1019 2 3.218688 0.001 0.001
5:00 pm 17:00 Cloudy with Light Drizzle 41 5 39 3.9 93 93 ENE 7 11 30.09 1019 1.75 2.816352 0.001 0.001
5:19 pm 17:19 Cloudy with Light Drizzle 41 5 39 3.9 93 93 NNE 6 9 30.09 1019 1.25 2.01168 0.001 0.001
5:41 pm 17:41 Cloudy with Light Drizzle 41 5 39 3.9 93 93 N 5 7 30.09 1019 2 3.218688 0.001 0.001
5:52 pm 17:52 Cloudy with Light Drizzle 41 5 39 3.9 93 93 NNE 6 9 30.09 1019 2 3.218688 0.001 0.001
6:17 pm 18:17 Cloudy with Light Drizzle 41 5 39 3.9 93 93 NE 6 9 30.09 1019 2.5 4.02336 0.01 0.254
6:46 pm 18:46 Cloudy with Light Drizzle 43 6 39 4 87 87 NE 6 9 30.09 1019 3 4.828032 0.01 0.254
6:52 pm 18:52 Cloudy with Light Drizzle 42 5.6 39 3.9 89 89 NNE 5 7 30.06 1018 3 4.828032 0.01 0.254
7:26 pm 19:26 Cloudy with Light Drizzle 42 5.6 39 3.9 89 89 NNE 6 9 30.06 1018 3 4.828032 0.001 0.001
7:52 pm 19:52 Cloudy with Light Drizzle 43 6.1 40 4.4 89 89 NNE 5 7 30.03 1017 4 6.437376 0.001 0.001
8:07 pm 20:07 Cloudy with Light Drizzle 43 6.1 40 4.4 89 89 N 6 9 30.06 1018 4 6.437376 0.001 0.001
8:52 pm 20:52 Cloudy with Light Drizzle 43 6.1 40 4.4 89 89 Calm 30.03 1017 4 6.437376 0.001 0.001
9:52 pm 21:52 Cloudy with Light Drizzle 44 6.7 41 5 89 89 NNE 5 7 30 1016 4 6.437376 0.001 0.001
10:39 pm 22:39 Cloudy with Light Drizzle 44 6.7 41 5 89 89 NNE 5 7 29.97 1015 2 3.218688 0.001 0.001
10:45 pm 22:45 Cloudy with Light Drizzle 44 6.7 41 5 89 89 NNE 5 7 29.97 1015 1.5 2.414016 0.001 0.001
10:52 pm 22:52 Cloudy with Light Drizzle 44 6.7 42 5.6 93 93 NNE 6 9 29.94 1014 1.5 2.414016 0.01 0.254
11:52 pm 23:52 Cloudy with Light Rain 44 6.7 42 5.6 93 93 NE 7 11 29.88 1012 1.25 2.01168 0.03 0.762

Powered by AerisWeather